Time,TemperatureF,DewpointF,PressureIn,WindDirection,WindDirectionDegrees,WindSpeedMPH,WindSpeedGustMPH,Humidity,HourlyPrecipIn,Conditions,Clouds,dailyrainin,SolarRadiationWatts/m^2,SoftwareType,DateUTC
2013-05-02 00:00:00,39.3,36.0,30.22,WSW,252,5.0,-999.0,88,-99.99,,,0.00,0,weatherlink.com 1.10,2013-05-01 23:00:00,
2013-05-02 00:15:00,39.8,36.0,30.23,WNW,285,4.0,-999.0,86,-99.99,,,0.00,0,weatherlink.com 1.10,2013-05-01 23:15:00,
2013-05-02 00:30:00,39.6,36.0,30.23,NW,319,0.0,-999.0,86,-99.99,,,0.00,0,weatherlink.com 1.10,2013-05-01 23:30:00,
2013-05-02 00:45:00,39.0,35.0,30.23,WNW,286,4.0,-999.0,85,-99.99,,,0.00,0,weatherlink.com 1.10,2013-05-01 23:45:00,
2013-05-02 01:00:00,40.6,35.0,30.23,North,351,0.0,-999.0,80,-99.99,,,0.00,0,weatherlink.com 1.10,2013-05-02 00:00:00,
2013-05-02 01:15:00,40.7,35.0,30.23,East,88,0.0,-999.0,80,-99.99,,,0.00,0,weatherlink.com 1.10,2013-05-02 00:15:00,
2013-05-02 01:30:00,39.0,34.0,30.23,East,86,0.0,-999.0,81,-99.99,,,0.00,0,weatherlink.com 1.10,2013-05-02 00:30:00,
2013-05-02 01:45:00,37.3,32.0,30.22,East,86,0.0,-999.0,81,-99.99,,,0.00,0,weatherlink.com 1.10,2013-05-02 00:45:00,
2013-05-02 02:00:00,36.1,32.0,30.22,East,86,0.0,-999.0,84,-99.99,,,0.00,0,weatherlink.com 1.10,2013-05-02 01:00:00,
2013-05-02 02:15:00,35.6,32.0,30.21,ESE,121,4.0,-999.0,87,-99.99,,,0.00,0,weatherlink.com 1.10,2013-05-02 01:15:00,
2013-05-02 02:30:00,34.5,31.0,30.21,NW,307,3.0,-999.0,88,-99.99,,,0.00,0,weatherlink.com 1.10,2013-05-02 01:30:00,
2013-05-02 02:45:00,35.7,33.0,30.21,SE,128,5.0,-999.0,91,-99.99,,,0.00,0,weatherlink.com 1.10,2013-05-02 01:45:00,
2013-05-02 03:00:00,36.3,33.0,30.21,SE,129,0.0,-999.0,89,-99.99,,,0.00,0,weatherlink.com 1.10,2013-05-02 02:00:00,
2013-05-02 03:15:00,35.4,32.0,30.20,SE,129,0.0,-999.0,87,-99.99,,,0.00,0,weatherlink.com 1.10,2013-05-02 02:15:00,
2013-05-02 03:30:00,35.2,33.0,30.20,SE,129,0.0,-999.0,90,-99.99,,,0.00,0,weatherlink.com 1.10,2013-05-02 02:30:00,
2013-05-02 03:45:00,34.1,31.0,30.20,SE,129,1.0,-999.0,88,-99.99,,,0.00,0,weatherlink.com 1.10,2013-05-02 02:45:00,
2013-05-02 04:00:00,33.0,30.0,30.20,ENE,65,0.0,-999.0,90,-99.99,,,0.00,0,weatherlink.com 1.10,2013-05-02 03:00:00,
2013-05-02 04:15:00,32.5,30.0,30.20,ENE,65,0.0,-999.0,91,-99.99,,,0.00,0,weatherlink.com 1.10,2013-05-02 03:15:00,
2013-05-02 04:30:00,32.3,30.0,30.20,NE,55,0.0,-999.0,91,-99.99,,,0.00,0,weatherlink.com 1.10,2013-05-02 03:30:00,
2013-05-02 04:45:00,32.0,30.0,30.20,NE,55,0.0,-999.0,91,-99.99,,,0.00,0,weatherlink.com 1.10,2013-05-02 03:45:00,
2013-05-02 05:00:00,30.9,29.0,30.20,NE,55,0.0,-999.0,91,-99.99,,,0.00,0,weatherlink.com 1.10,2013-05-02 04:00:00,
2013-05-02 05:16:00,30.8,29.0,30.20,NE,55,0.0,-999.0,92,-99.99,,,0.00,0,weatherlink.com 1.10,2013-05-02 04:16:00,
2013-05-02 05:31:00,30.7,29.0,30.20,NE,55,0.0,-999.0,92,-99.99,,,0.00,0,weatherlink.com 1.10,2013-05-02 04:31:00,
2013-05-02 05:46:00,31.0,29.0,30.19,NE,55,0.0,-999.0,93,-99.99,,,0.00,14,weatherlink.com 1.10,2013-05-02 04:46:00,
2013-05-02 06:01:00,31.8,30.0,30.20,NE,55,0.0,-999.0,93,-99.99,,,0.00,26,weatherlink.com 1.10,2013-05-02 05:01:00,
2013-05-02 06:16:00,32.0,31.0,30.20,NE,55,0.0,-999.0,94,-99.99,,,0.00,33,weatherlink.com 1.10,2013-05-02 05:16:00,
2013-05-02 06:31:00,32.2,31.0,30.20,NE,55,0.0,-999.0,94,-99.99,,,0.00,35,weatherlink.com 1.10,2013-05-02 05:31:00,
2013-05-02 06:46:00,32.4,31.0,30.20,NE,55,0.0,-999.0,94,-99.99,,,0.00,53,weatherlink.com 1.10,2013-05-02 05:46:00,
2013-05-02 07:01:00,33.5,32.0,30.20,NE,55,0.0,-999.0,94,-99.99,,,0.00,95,weatherlink.com 1.10,2013-05-02 06:01:00,
2013-05-02 07:16:00,35.2,34.0,30.20,ENE,57,0.0,-999.0,95,-99.99,,,0.00,137,weatherlink.com 1.10,2013-05-02 06:16:00,
2013-05-02 07:31:00,37.0,36.0,30.20,ENE,57,0.0,-999.0,95,-99.99,,,0.00,97,weatherlink.com 1.10,2013-05-02 06:31:00,
2013-05-02 07:46:00,38.0,36.0,30.20,NE,46,0.0,-999.0,93,-99.99,,,0.00,100,weatherlink.com 1.10,2013-05-02 06:46:00,
2013-05-02 08:01:00,38.6,37.0,30.20,NE,46,0.0,-999.0,92,-99.99,,,0.00,74,weatherlink.com 1.10,2013-05-02 07:01:00,
2013-05-02 08:16:00,39.0,37.0,30.20,NE,46,0.0,-999.0,91,-99.99,,,0.00,77,weatherlink.com 1.10,2013-05-02 07:16:00,
2013-05-02 08:31:00,39.6,37.0,30.20,NE,46,0.0,-999.0,90,-99.99,,,0.00,102,weatherlink.com 1.10,2013-05-02 07:31:00,
2013-05-02 08:46:00,40.3,38.0,30.20,NE,46,0.0,-999.0,90,-99.99,,,0.00,109,weatherlink.com 1.10,2013-05-02 07:46:00,
2013-05-02 09:01:00,40.9,38.0,30.20,NE,46,0.0,-999.0,89,-99.99,,,0.00,127,weatherlink.com 1.10,2013-05-02 08:01:00,
2013-05-02 09:16:00,41.9,39.0,30.20,NE,46,0.0,-999.0,89,-99.99,,,0.00,193,weatherlink.com 1.10,2013-05-02 08:16:00,
2013-05-02 09:31:00,42.6,39.0,30.20,NE,46,0.0,-999.0,86,-99.99,,,0.00,232,weatherlink.com 1.10,2013-05-02 08:31:00,
2013-05-02 09:46:00,43.6,39.0,30.20,NE,46,0.0,-999.0,84,-99.99,,,0.00,285,weatherlink.com 1.10,2013-05-02 08:46:00,
2013-05-02 10:01:00,44.4,40.0,30.20,NE,47,1.0,-999.0,83,-99.99,,,0.00,272,weatherlink.com 1.10,2013-05-02 09:01:00,
2013-05-02 10:16:00,44.8,40.0,30.19,South,172,2.0,-999.0,83,-99.99,,,0.00,311,weatherlink.com 1.10,2013-05-02 09:16:00,
2013-05-02 10:31:00,45.2,40.0,30.19,SSE,152,0.0,-999.0,81,-99.99,,,0.00,244,weatherlink.com 1.10,2013-05-02 09:31:00,
2013-05-02 10:46:00,45.6,40.0,30.19,SSE,167,1.0,-999.0,81,-99.99,,,0.00,239,weatherlink.com 1.10,2013-05-02 09:46:00,
2013-05-02 11:01:00,46.2,39.0,30.18,South,184,3.0,-999.0,77,-99.99,,,0.00,221,weatherlink.com 1.10,2013-05-02 10:01:00,
2013-05-02 11:16:00,46.6,39.0,30.18,SSE,158,4.0,-999.0,76,-99.99,,,0.00,185,weatherlink.com 1.10,2013-05-02 10:16:00,
2013-05-02 11:31:00,47.0,39.0,30.17,South,183,4.0,-999.0,74,-99.99,,,0.00,271,weatherlink.com 1.10,2013-05-02 10:31:00,
2013-05-02 11:46:00,47.7,39.0,30.17,SSE,165,4.0,-999.0,72,-99.99,,,0.00,271,weatherlink.com 1.10,2013-05-02 10:46:00,
2013-05-02 12:01:00,48.6,39.0,30.16,South,169,1.0,-999.0,69,-99.99,,,0.00,357,weatherlink.com 1.10,2013-05-02 11:01:00,
2013-05-02 12:16:00,49.7,39.0,30.16,SE,136,9.0,-999.0,66,-99.99,,,0.00,323,weatherlink.com 1.10,2013-05-02 11:16:00,
2013-05-02 12:32:00,49.6,38.0,30.16,South,191,4.0,-999.0,65,-99.99,,,0.00,220,weatherlink.com 1.10,2013-05-02 11:32:00,
2013-05-02 12:47:00,49.4,38.0,30.15,SSW,192,3.0,-999.0,66,-99.99,,,0.00,318,weatherlink.com 1.10,2013-05-02 11:47:00,
2013-05-02 13:02:00,50.2,40.0,30.15,SW,219,5.0,-999.0,67,-99.99,,,0.00,288,weatherlink.com 1.10,2013-05-02 12:02:00,
2013-05-02 13:17:00,50.6,40.0,30.14,SW,214,3.0,-999.0,68,-99.99,,,0.00,230,weatherlink.com 1.10,2013-05-02 12:17:00,
2013-05-02 13:32:00,50.9,42.0,30.14,South,185,7.0,-999.0,72,-99.99,,,0.00,417,weatherlink.com 1.10,2013-05-02 12:32:00,
2013-05-02 13:47:00,51.3,42.0,30.13,SSW,206,2.0,-999.0,71,-99.99,,,0.00,260,weatherlink.com 1.10,2013-05-02 12:47:00,
2013-05-02 14:02:00,51.8,41.0,30.12,SSW,192,5.0,-999.0,68,-99.99,,,0.00,306,weatherlink.com 1.10,2013-05-02 13:02:00,
2013-05-02 14:17:00,52.3,41.0,30.12,WSW,247,4.0,-999.0,65,-99.99,,,0.00,371,weatherlink.com 1.10,2013-05-02 13:17:00,
2013-05-02 14:32:00,53.0,42.0,30.11,SSW,210,7.0,-999.0,67,-99.99,,,0.00,432,weatherlink.com 1.10,2013-05-02 13:32:00,
2013-05-02 14:47:00,52.9,41.0,30.11,West,263,4.0,-999.0,65,-99.99,,,0.00,410,weatherlink.com 1.10,2013-05-02 13:47:00,
2013-05-02 15:02:00,53.1,42.0,30.10,SW,231,3.0,-999.0,67,-99.99,,,0.00,311,weatherlink.com 1.10,2013-05-02 14:02:00,
2013-05-02 15:17:00,53.0,43.0,30.09,SW,215,10.0,-999.0,68,-99.99,,,0.00,332,weatherlink.com 1.10,2013-05-02 14:17:00,
2013-05-02 15:32:00,52.9,42.0,30.09,SSE,155,13.0,-999.0,66,-99.99,,,0.00,299,weatherlink.com 1.10,2013-05-02 14:32:00,
2013-05-02 15:47:00,52.4,42.0,30.08,South,175,12.0,-999.0,67,-99.99,,,0.00,239,weatherlink.com 1.10,2013-05-02 14:47:00,
2013-05-02 16:02:00,52.4,42.0,30.07,South,186,4.0,-999.0,68,-99.99,,,0.00,127,weatherlink.com 1.10,2013-05-02 15:02:00,
2013-05-02 16:17:00,52.1,43.0,30.07,SSW,205,4.0,-999.0,71,-99.99,,,0.00,98,weatherlink.com 1.10,2013-05-02 15:17:00,
2013-05-02 16:32:00,51.7,43.0,30.06,WSW,246,5.0,-999.0,73,-99.99,,,0.00,104,weatherlink.com 1.10,2013-05-02 15:32:00,
2013-05-02 16:47:00,51.4,44.0,30.06,SSW,200,2.0,-999.0,75,-99.99,,,0.00,62,weatherlink.com 1.10,2013-05-02 15:47:00,
2013-05-02 17:02:00,51.3,44.0,30.05,SSW,213,6.0,-999.0,77,-99.99,,,0.00,42,weatherlink.com 1.10,2013-05-02 16:02:00,
2013-05-02 17:17:00,50.9,44.0,30.05,SSE,148,5.0,-999.0,78,-99.99,,,0.00,33,weatherlink.com 1.10,2013-05-02 16:17:00,
2013-05-02 17:32:00,50.7,45.0,30.04,SSW,211,2.0,-999.0,81,-99.99,,,0.00,58,weatherlink.com 1.10,2013-05-02 16:32:00,
2013-05-02 17:47:00,50.5,45.0,30.04,SSW,205,12.0,-999.0,82,-99.99,,,0.00,63,weatherlink.com 1.10,2013-05-02 16:47:00,
2013-05-02 18:02:00,50.2,46.0,30.04,SW,215,7.0,-999.0,84,-99.99,,,0.00,56,weatherlink.com 1.10,2013-05-02 17:02:00,
2013-05-02 18:17:00,49.8,46.0,30.04,WSW,253,7.0,-999.0,86,-99.99,,,0.00,91,weatherlink.com 1.10,2013-05-02 17:17:00,
2013-05-02 18:32:00,49.8,46.0,30.03,SSW,192,9.0,-999.0,86,-99.99,,,0.00,77,weatherlink.com 1.10,2013-05-02 17:32:00,
2013-05-02 18:47:00,49.6,46.0,30.02,WSW,242,7.0,-999.0,87,-99.99,,,0.00,40,weatherlink.com 1.10,2013-05-02 17:47:00,
2013-05-02 19:02:00,49.4,46.0,30.02,SSE,163,11.0,-999.0,87,-99.99,,,0.00,35,weatherlink.com 1.10,2013-05-02 18:02:00,
2013-05-02 19:17:00,49.2,46.0,30.02,SW,214,9.0,-999.0,88,-99.99,,,0.01,39,weatherlink.com 1.10,2013-05-02 18:17:00,
2013-05-02 19:32:00,49.1,46.0,30.01,SSW,200,9.0,-999.0,88,-99.99,,,0.01,26,weatherlink.com 1.10,2013-05-02 18:32:00,
2013-05-02 19:47:00,49.1,46.0,30.01,SSW,203,4.0,-999.0,88,-99.99,,,0.01,18,weatherlink.com 1.10,2013-05-02 18:47:00,
2013-05-02 20:02:00,48.9,46.0,30.01,SW,220,5.0,-999.0,89,-99.99,,,0.01,14,weatherlink.com 1.10,2013-05-02 19:02:00,
2013-05-02 20:17:00,48.7,46.0,30.00,WSW,242,6.0,-999.0,90,-99.99,,,0.02,5,weatherlink.com 1.10,2013-05-02 19:17:00,
2013-05-02 20:33:00,48.5,46.0,30.00,SSW,198,3.0,-999.0,90,-99.99,,,0.02,0,weatherlink.com 1.10,2013-05-02 19:33:00,
2013-05-02 20:48:00,48.5,46.0,30.00,SW,219,7.0,-999.0,90,-99.99,,,0.02,0,weatherlink.com 1.10,2013-05-02 19:48:00,
2013-05-02 21:03:00,48.6,46.0,29.99,SW,219,5.0,-999.0,90,-99.99,,,0.02,0,weatherlink.com 1.10,2013-05-02 20:03:00,
2013-05-02 21:18:00,48.7,46.0,29.99,WSW,254,6.0,-999.0,90,-99.99,,,0.02,0,weatherlink.com 1.10,2013-05-02 20:18:00,
2013-05-02 21:33:00,48.5,46.0,29.99,SSW,209,12.0,-999.0,90,-99.99,,,0.03,0,weatherlink.com 1.10,2013-05-02 20:33:00,
2013-05-02 21:48:00,48.0,46.0,29.99,South,184,3.0,-999.0,91,-99.99,,,0.03,0,weatherlink.com 1.10,2013-05-02 20:48:00,
2013-05-02 22:03:00,47.9,46.0,29.98,South,175,8.0,-999.0,92,-99.99,,,0.03,0,weatherlink.com 1.10,2013-05-02 21:03:00,
2013-05-02 22:18:00,47.9,46.0,29.98,WSW,246,10.0,-999.0,93,-99.99,,,0.03,0,weatherlink.com 1.10,2013-05-02 21:18:00,
2013-05-02 22:33:00,47.8,46.0,29.98,South,170,10.0,-999.0,93,-99.99,,,0.03,0,weatherlink.com 1.10,2013-05-02 21:33:00,
2013-05-02 22:48:00,47.8,46.0,29.98,SSE,157,9.0,-999.0,93,-99.99,,,0.03,0,weatherlink.com 1.10,2013-05-02 21:48:00,
2013-05-02 23:03:00,47.7,46.0,29.97,SSW,213,7.0,-999.0,94,-99.99,,,0.03,0,weatherlink.com 1.10,2013-05-02 22:03:00,
2013-05-02 23:18:00,47.8,46.0,29.97,SW,229,4.0,-999.0,93,-99.99,,,0.03,0,weatherlink.com 1.10,2013-05-02 22:18:00,
2013-05-02 23:33:00,48.0,46.0,29.96,SSW,202,5.0,-999.0,93,-99.99,,,0.03,0,weatherlink.com 1.10,2013-05-02 22:33:00,
2013-05-02 23:48:00,48.1,46.0,29.96,SW,235,5.0,-999.0,93,-99.99,,,0.03,0,weatherlink.com 1.10,2013-05-02 22:48:00,